| time (UTC) | temp F | wind direction | speed knots | gust knots | rain 1hr in | rain 24hr in | rain mn in | humidity % | barometer mb |
| 20260504110433 | 47 | 160 | 1.7 | 1.7 | 0.00 | 0.00 | 0.00 | 68 | 1013.6 |
| 20260504100349 | 46 | 155 | 0.9 | 0.9 | 0.00 | 0.00 | 0.00 | 72 | 1013.5 |
| 20260504081743 | 47 | 168 | 0.9 | 0.9 | 0.00 | 0.00 | 0.00 | 75 | 1014.1 |
| 20260504081239 | 47 | 164 | 0.0 | 0.0 | 0.00 | 0.00 | 0.00 | 74 | 1014.1 |
| 20260504080736 | 47 | 159 | 0.9 | 0.9 | 0.00 | 0.00 | 0.00 | 74 | 1013.8 |
| 20260504080232 | 47 | 161 | 0.0 | 0.0 | 0.00 | 0.00 | 0.00 | 74 | 1013.7 |
| 20260504070200 | 47 | 157 | 0.9 | 0.9 | 0.00 | 0.00 | 0.00 | 72 | 1014.0 |
| 20260504060120 | 48 | 158 | 0.9 | 0.9 | 0.00 | 0.00 | 0.00 | 71 | 1014.4 |
| 20260504050548 | 48 | 152 | 0.9 | 0.9 | 0.00 | 0.00 | 0.00 | 70 | 1014.3 |
| 20260504045542 | 48 | 164 | 0.0 | 0.0 | 0.00 | 0.00 | 0.00 | 70 | 1014.4 |
| 20260504045037 | 48 | 158 | 0.0 | 0.9 | 0.00 | 0.00 | 0.00 | 70 | 1014.2 |
| 20260504044535 | 48 | 150 | 0.9 | 0.9 | 0.00 | 0.00 | 0.00 | 70 | 1014.5 |
| 20260504044032 | 48 | 166 | 0.0 | 0.0 | 0.00 | 0.00 | 0.00 | 70 | 1014.4 |
| 20260504043529 | 48 | 167 | 0.0 | 0.9 | 0.00 | 0.00 | 0.00 | 70 | 1014.9 |
| 20260504043026 | 48 | 162 | 0.0 | 0.0 | 0.00 | 0.00 | 0.00 | 69 | 1014.6 |
| 20260504042523 | 48 | 198 | 1.7 | 1.7 | 0.00 | 0.00 | 0.00 | 69 | 1014.8 |
| 20260504042020 | 48 | 198 | 0.9 | 1.7 | 0.00 | 0.00 | 0.00 | 69 | 1014.7 |
| 20260504041516 | 48 | 168 | 1.7 | 1.7 | 0.00 | 0.00 | 0.00 | 69 | 1014.7 |
| 20260504041012 | 48 | 170 | 0.9 | 0.9 | 0.00 | 0.00 | 0.00 | 69 | 1014.7 |
| 20260504040510 | 48 | 171 | 0.9 | 0.9 | 0.00 | 0.00 | 0.00 | 68 | 1014.6 |
| 20260504040006 | 48 | 170 | 0.9 | 0.9 | 0.00 | 0.00 | 0.00 | 67 | 1014.6 |
| 20260504035503 | 48 | 197 | 0.9 | 0.9 | 0.00 | 0.00 | 0.00 | 66 | 1014.7 |
| 20260504034959 | 48 | 178 | 0.9 | 1.7 | 0.00 | 0.00 | 0.00 | 66 | 1014.8 |
| 20260504034457 | 48 | 188 | 0.9 | 0.9 | 0.00 | 0.00 | 0.00 | 65 | 1014.8 |
| 20260504033954 | 48 | 165 | 0.0 | 0.0 | 0.00 | 0.00 | 0.00 | 64 | 1014.7 |
| 20260504033452 | 48 | 160 | 0.0 | 0.0 | 0.00 | 0.00 | 0.00 | 64 | 1014.8 |
| 20260504032949 | 48 | 167 | 0.0 | 0.0 | 0.00 | 0.00 | 0.00 | 63 | 1014.7 |
| 20260504032446 | 48 | 169 | 0.0 | 0.9 | 0.00 | 0.00 | 0.00 | 61 | 1014.8 |
| 20260504031942 | 48 | 165 | 0.0 | 0.0 | 0.00 | 0.00 | 0.00 | 59 | 1014.6 |
| 20260504031439 | 48 | 174 | 0.9 | 0.9 | 0.00 | 0.00 | 0.00 | 58 | 1014.6 |
| 20260504030936 | 48 | 167 | 0.9 | 0.9 | 0.00 | 0.00 | 0.00 | 57 | 1014.7 |
| 20260504030433 | 48 | 168 | 0.0 | 0.0 | 0.00 | 0.00 | 0.00 | 56 | 1014.7 |
| 20260504025929 | 48 | 171 | 0.0 | 0.9 | 0.00 | 0.00 | 0.00 | 55 | 1014.5 |
| 20260504025426 | 48 | 177 | 0.9 | 0.9 | 0.00 | 0.00 | 0.00 | 54 | 1014.5 |
| 20260504024923 | 48 | 171 | 0.0 | 0.9 | 0.00 | 0.00 | 0.00 | 55 | 1014.4 |
| 20260504024420 | 48 | 204 | 1.7 | 1.7 | 0.00 | 0.00 | 0.00 | 54 | 1014.6 |
| 20260504023917 | 48 | 168 | 0.9 | 1.7 | 0.00 | 0.00 | 0.00 | 53 | 1014.3 |
| 20260504023413 | 47 | 173 | 0.9 | 0.9 | 0.00 | 0.00 | 0.00 | 52 | 1014.4 |
| 20260504022909 | 47 | 167 | 0.0 | 0.0 | 0.00 | 0.00 | 0.00 | 52 | 1014.5 |
| 20260504022406 | 47 | 173 | 0.9 | 0.9 | 0.00 | 0.00 | 0.00 | 51 | 1014.5 |
| 20260504021902 | 47 | 170 | 0.0 | 0.0 | 0.00 | 0.00 | 0.00 | 51 | 1014.5 |
| 20260504021400 | 47 | 170 | 0.9 | 0.9 | 0.00 | 0.00 | 0.00 | 50 | 1014.4 |
| 20260504020857 | 47 | 170 | 0.0 | 0.0 | 0.00 | 0.00 | 0.00 | 49 | 1014.3 |
| 20260504020353 | 47 | 170 | 0.0 | 0.0 | 0.00 | 0.00 | 0.00 | 49 | 1014.5 |
| 20260504015849 | 47 | 170 | 0.0 | 0.0 | 0.00 | 0.00 | 0.00 | 48 | 1014.4 |
| 20260504015346 | 48 | 170 | 0.0 | 0.0 | 0.00 | 0.00 | 0.00 | 47 | 1014.5 |
| 20260504014842 | 48 | 171 | 0.0 | 0.0 | 0.00 | 0.00 | 0.00 | 46 | 1014.5 |
| 20260504014338 | 48 | 171 | 0.0 | 0.0 | 0.00 | 0.00 | 0.00 | 45 | 1014.5 |
| 20260504013836 | 48 | 171 | 0.9 | 0.9 | 0.00 | 0.00 | 0.00 | 46 | 1014.5 |
| 20260504013334 | 48 | 170 | 0.0 | 0.0 | 0.00 | 0.00 | 0.00 | 45 | 1014.5 |
| 20260504012830 | 49 | 170 | 0.0 | 0.0 | 0.00 | 0.00 | 0.00 | 44 | 1014.4 |
| 20260504012328 | 49 | 170 | 0.0 | 0.9 | 0.00 | 0.00 | 0.00 | 43 | 1014.4 |
| 20260504011825 | 50 | 173 | 0.9 | 0.9 | 0.00 | 0.00 | 0.00 | 43 | 1014.3 |
| 20260504011321 | 50 | 179 | 0.9 | 1.7 | 0.00 | 0.00 | 0.00 | 42 | 1014.4 |
| 20260504010817 | 50 | 171 | 0.0 | 0.9 | 0.00 | 0.00 | 0.00 | 41 | 1014.4 |
| 20260504010313 | 51 | 174 | 0.0 | 0.9 | 0.00 | 0.00 | 0.00 | 41 | 1014.2 |
| 20260504005810 | 51 | 179 | 1.7 | 1.7 | 0.00 | 0.00 | 0.00 | 40 | 1014.0 |
| 20260504005307 | 51 | 157 | 0.9 | 0.9 | 0.00 | 0.00 | 0.00 | 40 | 1014.1 |
| 20260504004805 | 51 | 171 | 2.6 | 4.3 | 0.00 | 0.00 | 0.00 | 40 | 1013.9 |
| 20260504004302 | 51 | 192 | 0.9 | 1.7 | 0.00 | 0.00 | 0.00 | 40 | 1013.9 |
| 20260504003758 | 51 | 166 | 0.0 | 0.0 | 0.00 | 0.00 | 0.00 | 40 | 1013.9 |
| 20260504003255 | 51 | 206 | 1.7 | 1.7 | 0.00 | 0.00 | 0.00 | 39 | 1013.7 |
| 20260504002752 | 51 | 188 | 0.9 | 0.9 | 0.00 | 0.00 | 0.00 | 39 | 1013.5 |
| 20260504002249 | 51 | 173 | 0.0 | 0.9 | 0.00 | 0.00 | 0.00 | 39 | 1013.8 |
| 20260504001746 | 52 | 165 | 0.0 | 0.0 | 0.00 | 0.00 | 0.00 | 38 | 1013.4 |
| 20260504001243 | 52 | 170 | 0.9 | 0.9 | 0.00 | 0.00 | 0.00 | 37 | 1013.4 |
| 20260504000740 | 53 | 190 | 3.5 | 4.3 | 0.00 | 0.00 | 0.00 | 37 | 1013.3 |
| 20260504000237 | 53 | 328 | 0.9 | 0.9 | 0.00 | 0.00 | 0.00 | 36 | 1013.3 |
| 20260503235735 | 53 | 192 | 2.6 | 2.6 | 0.00 | 0.00 | 0.00 | 36 | 1013.2 |
| 20260503235232 | 53 | 173 | 0.9 | 0.9 | 0.00 | 0.00 | 0.00 | 35 | 1013.2 |
| 20260503234730 | 53 | 243 | 4.3 | 5.2 | 0.00 | 0.00 | 0.00 | 35 | 1012.9 |
| 20260503234228 | 54 | 218 | 4.3 | 7.0 | 0.00 | 0.00 | 0.00 | 34 | 1013.0 |
| 20260503233725 | 54 | 330 | 5.2 | 7.8 | 0.00 | 0.00 | 0.00 | 34 | 1012.8 |
| 20260503233220 | 54 | 5 | 6.1 | 8.7 | 0.00 | 0.00 | 0.00 | 33 | 1012.9 |
| 20260503232717 | 55 | 126 | 2.6 | 2.6 | 0.00 | 0.00 | 0.00 | 32 | 1012.8 |
| 20260503232214 | 55 | 220 | 1.7 | 2.6 | 0.00 | 0.00 | 0.00 | 31 | 1012.6 |
| 20260503231713 | 55 | 189 | 2.6 | 2.6 | 0.00 | 0.00 | 0.00 | 30 | 1012.6 |
| 20260503231209 | 56 | 259 | 2.6 | 4.3 | 0.00 | 0.00 | 0.00 | 29 | 1012.8 |
| 20260503230705 | 56 | 229 | 5.2 | 6.1 | 0.00 | 0.00 | 0.00 | 28 | 1012.3 |
| 20260503230203 | 57 | 228 | 1.7 | 2.6 | 0.00 | 0.00 | 0.00 | 27 | 1012.5 |
| 20260503225700 | 58 | 162 | 2.6 | 4.3 | 0.00 | 0.00 | 0.00 | 27 | 1012.3 |
| 20260503225200 | 57 | 211 | 1.7 | 1.7 | 0.00 | 0.00 | 0.00 | 27 | 1012.1 |
| 20260503224658 | 57 | 62 | 0.0 | 0.9 | 0.00 | 0.00 | 0.00 | 26 | 1012.0 |
| 20260503224155 | 58 | 189 | 6.1 | 7.0 | 0.00 | 0.00 | 0.00 | 26 | 1012.0 |
| 20260503223653 | 57 | 201 | 0.9 | 1.7 | 0.00 | 0.00 | 0.00 | 27 | 1012.2 |
| 20260503223149 | 58 | 233 | 3.5 | 7.8 | 0.00 | 0.00 | 0.00 | 27 | 1012.1 |
| 20260503222646 | 57 | 218 | 2.6 | 4.3 | 0.00 | 0.00 | 0.00 | 27 | 1012.0 |
| 20260503222144 | 58 | 169 | 1.7 | 1.7 | 0.00 | 0.00 | 0.00 | 27 | 1012.0 |
| 20260503221642 | 59 | 100 | 1.7 | 1.7 | 0.00 | 0.00 | 0.00 | 28 | 1012.0 |
| 20260503221139 | 59 | 185 | 0.9 | 0.9 | 0.00 | 0.00 | 0.00 | 29 | 1012.2 |
| 20260503220636 | 58 | 209 | 1.7 | 1.7 | 0.00 | 0.00 | 0.00 | 29 | 1011.9 |
| 20260503220132 | 58 | 164 | 0.9 | 0.9 | 0.00 | 0.00 | 0.00 | 30 | 1012.0 |
| 20260503215630 | 57 | 199 | 1.7 | 1.7 | 0.00 | 0.00 | 0.00 | 30 | 1012.3 |
| 20260503215126 | 57 | 238 | 3.5 | 5.2 | 0.00 | 0.00 | 0.00 | 30 | 1012.2 |
| 20260503214625 | 57 | 130 | 2.6 | 2.6 | 0.00 | 0.00 | 0.00 | 31 | 1012.1 |
| 20260503214120 | 59 | 2 | 3.5 | 4.3 | 0.00 | 0.00 | 0.00 | 30 | 1012.2 |
| 20260503213615 | 58 | 335 | 2.6 | 4.3 | 0.00 | 0.00 | 0.00 | 31 | 1012.2 |
| 20260503213110 | 59 | 307 | 0.9 | 4.3 | 0.00 | 0.00 | 0.00 | 32 | 1012.1 |
| 20260503212608 | 57 | 179 | 0.9 | 0.9 | 0.00 | 0.00 | 0.00 | 31 | 1012.0 |
| 20260503212105 | 56 | 203 | 1.7 | 1.7 | 0.00 | 0.00 | 0.00 | 32 | 1012.4 |
| 20260503211603 | 56 | 217 | 1.7 | 2.6 | 0.00 | 0.00 | 0.00 | 33 | 1012.3 |
| 20260503211058 | 55 | 243 | 2.6 | 4.3 | 0.00 | 0.00 | 0.00 | 33 | 1012.3 |
| 20260503210555 | 55 | 231 | 2.6 | 2.6 | 0.00 | 0.00 | 0.00 | 33 | 1012.5 |
| 20260503210050 | 55 | 230 | 4.3 | 6.1 | 0.00 | 0.00 | 0.00 | 33 | 1012.4 |
| 20260503205547 | 56 | 216 | 2.6 | 2.6 | 0.00 | 0.00 | 0.00 | 33 | 1012.2 |
| 20260503205044 | 57 | 172 | 1.7 | 1.7 | 0.00 | 0.00 | 0.00 | 33 | 1012.6 |
| 20260503204541 | 57 | 195 | 2.6 | 2.6 | 0.00 | 0.00 | 0.00 | 33 | 1012.5 |
| 20260503204038 | 57 | 202 | 4.3 | 6.1 | 0.00 | 0.00 | 0.00 | 33 | 1012.5 |
| 20260503203535 | 57 | 166 | 2.6 | 5.2 | 0.00 | 0.00 | 0.00 | 32 | 1012.5 |
| 20260503203032 | 57 | 222 | 3.5 | 7.0 | 0.00 | 0.00 | 0.00 | 34 | 1012.5 |
| 20260503202530 | 56 | 281 | 2.6 | 4.3 | 0.00 | 0.00 | 0.00 | 34 | 1012.5 |
| 20260503202028 | 55 | 339 | 0.9 | 1.7 | 0.00 | 0.00 | 0.00 | 35 | 1012.5 |
| 20260503201526 | 54 | 155 | 1.7 | 1.7 | 0.00 | 0.00 | 0.00 | 37 | 1012.8 |
| 20260503201023 | 53 | 279 | 0.0 | 0.9 | 0.00 | 0.00 | 0.00 | 38 | 1012.9 |
| 20260503200519 | 55 | 145 | 3.5 | 5.2 | 0.00 | 0.00 | 0.00 | 36 | 1013.0 |
| 20260503200015 | 55 | 202 | 2.6 | 2.6 | 0.00 | 0.00 | 0.00 | 36 | 1012.9 |
| 20260503195513 | 54 | 165 | 2.6 | 2.6 | 0.00 | 0.00 | 0.00 | 36 | 1012.9 |
| 20260503195009 | 54 | 158 | 2.6 | 5.2 | 0.00 | 0.00 | 0.00 | 37 | 1013.1 |
| 20260503194507 | 54 | 291 | 2.6 | 4.3 | 0.00 | 0.00 | 0.00 | 36 | 1013.1 |
| 20260503194006 | 54 | 178 | 1.7 | 2.6 | 0.00 | 0.00 | 0.00 | 37 | 1013.1 |
| 20260503193503 | 55 | 167 | 2.6 | 4.3 | 0.00 | 0.00 | 0.00 | 37 | 1013.1 |
| 20260503192958 | 54 | 237 | 1.7 | 1.7 | 0.00 | 0.00 | 0.00 | 37 | 1013.1 |
| 20260503192455 | 53 | 240 | 1.7 | 2.6 | 0.00 | 0.00 | 0.00 | 38 | 1013.2 |
| 20260503191950 | 53 | 177 | 0.9 | 1.7 | 0.00 | 0.00 | 0.00 | 39 | 1013.4 |
| 20260503191448 | 53 | 157 | 2.6 | 4.3 | 0.00 | 0.00 | 0.00 | 38 | 1013.6 |
| 20260503190944 | 53 | 113 | 2.6 | 4.3 | 0.00 | 0.00 | 0.00 | 38 | 1013.6 |
| 20260503190442 | 53 | 175 | 1.7 | 1.7 | 0.00 | 0.00 | 0.00 | 39 | 1013.5 |
| 20260503185939 | 53 | 183 | 1.7 | 1.7 | 0.00 | 0.00 | 0.00 | 38 | 1013.8 |
| 20260503185435 | 53 | 213 | 1.7 | 2.6 | 0.00 | 0.00 | 0.00 | 39 | 1013.6 |
| 20260503184934 | 52 | 145 | 2.6 | 2.6 | 0.00 | 0.00 | 0.00 | 40 | 1013.7 |
| 20260503184431 | 52 | 166 | 0.9 | 0.9 | 0.00 | 0.00 | 0.00 | 41 | 1013.8 |
| 20260503183927 | 52 | 201 | 1.7 | 1.7 | 0.00 | 0.00 | 0.00 | 40 | 1013.6 |
| 20260503183424 | 52 | 304 | 5.2 | 6.1 | 0.00 | 0.00 | 0.00 | 40 | 1013.6 |
| 20260503182921 | 52 | 152 | 0.9 | 0.9 | 0.00 | 0.00 | 0.00 | 41 | 1013.7 |
| 20260503182420 | 53 | 223 | 1.7 | 2.6 | 0.00 | 0.00 | 0.00 | 41 | 1013.7 |
| 20260503181917 | 51 | 206 | 3.5 | 4.3 | 0.00 | 0.00 | 0.00 | 40 | 1013.9 |
| 20260503181414 | 51 | 192 | 3.5 | 5.2 | 0.00 | 0.00 | 0.00 | 41 | 1014.2 |
| 20260503180910 | 51 | 167 | 0.9 | 1.7 | 0.00 | 0.00 | 0.00 | 42 | 1014.1 |
| 20260503180409 | 51 | 160 | 1.7 | 1.7 | 0.00 | 0.00 | 0.00 | 42 | 1013.9 |
| 20260503175904 | 50 | 181 | 1.7 | 1.7 | 0.00 | 0.00 | 0.00 | 42 | 1014.0 |
| 20260503175403 | 50 | 210 | 2.6 | 2.6 | 0.00 | 0.00 | 0.00 | 41 | 1014.1 |
| 20260503174858 | 50 | 60 | 0.9 | 0.9 | 0.00 | 0.00 | 0.00 | 42 | 1014.0 |
| 20260503174356 | 51 | 121 | 1.7 | 1.7 | 0.00 | 0.00 | 0.00 | 40 | 1014.2 |
| 20260503173851 | 51 | 288 | 1.7 | 2.6 | 0.00 | 0.00 | 0.00 | 42 | 1014.2 |
| 20260503173348 | 50 | 159 | 0.9 | 1.7 | 0.00 | 0.00 | 0.00 | 42 | 1014.0 |
| 20260503172844 | 50 | 204 | 2.6 | 5.2 | 0.00 | 0.00 | 0.00 | 42 | 1014.2 |
| 20260503172342 | 50 | 171 | 0.0 | 0.9 | 0.00 | 0.00 | 0.00 | 41 | 1014.2 |
| 20260503171838 | 50 | 216 | 4.3 | 6.1 | 0.00 | 0.00 | 0.00 | 40 | 1014.3 |
| 20260503171335 | 50 | 21 | 2.6 | 5.2 | 0.00 | 0.00 | 0.00 | 41 | 1014.2 |
| 20260503170832 | 50 | 85 | 1.7 | 2.6 | 0.00 | 0.00 | 0.00 | 40 | 1014.3 |
| 20260503170329 | 50 | 276 | 2.6 | 2.6 | 0.00 | 0.00 | 0.00 | 41 | 1014.5 |
| 20260503150721 | 50 | 189 | 0.9 | 0.9 | 0.00 | 0.00 | 0.00 | 44 | 1014.7 |
| 20260503150217 | 50 | 157 | 0.9 | 0.9 | 0.00 | 0.00 | 0.00 | 44 | 1014.6 |
| 20260503140142 | 49 | 119 | 1.7 | 1.7 | 0.00 | 0.00 | 0.00 | 54 | 1015.0 |
| 20260503131111 | 46 | 227 | 2.6 | 4.3 | 0.00 | 0.00 | 0.00 | 60 | 1015.3 |
| 20260503130609 | 46 | 101 | 1.7 | 1.7 | 0.00 | 0.00 | 0.00 | 61 | 1015.1 |
| 20260503130106 | 46 | 251 | 2.6 | 4.3 | 0.00 | 0.00 | 0.00 | 62 | 1015.2 |